• Join FlightAware (Why Join?)
  • Login
  • US Flag 
03:06AM EDT


 

Airport Tracker/Info


-or-


 

Live Flight TrackerFlight Track Log ✈ DAL3860 ✈ 18-Apr-2013 ✈ KCLE - KMSP

Flight Track Log - Related Links

Times and Time Zones

All times are in EDT time to prevent confusion due to time zone crossing. See the DAL3860 flight status page for this flight to view local times or setup timezone preferences in your user account.

Time Position Orientation Groundspeed Altitude Reporting Facility
EDT Latitude Longitude Course Direction KTS MPH feet Rate Location/Type
10:06AM 41.3939 -81.8839 270° West 154 177 1,900  Level Cleveland Center
10:07AM 41.3994 -81.9450 277° West 183 211 4,000 1,620 Climbing Cleveland Center
10:08AM 41.4050 -81.9978 278° West 207 238 4,700 1,680 Climbing Cleveland Center
10:09AM 41.3377 -82.2301 258° West  Level FlightAware Approximate
10:09AM 41.4144 -82.0867 278° West 239 275 7,000  Level Cleveland Center
10:10AM 41.3178 -82.3593 258° West  Level FlightAware Approximate
10:10AM 41.3964 -82.1747 255° West 244 281 9,200  Level Cleveland Center
10:11AM 41.3014 -82.4892 261° West  Level FlightAware Approximate
10:11AM 41.3972 -82.2689 271° West 249 287 11,200  Level Cleveland Center
10:12AM 41.2833 -82.6179 270° West  Level FlightAware Approximate
10:12AM 41.4017 -82.3797 273° West 282 325 12,200  Level Cleveland Center
10:13AM 41.4081 -82.4989 274° West 317 365 13,300 1,320 Climbing Cleveland Center
10:14AM 41.4144 -82.6211 274° West 334 384 14,900 1,440 Climbing Cleveland Center
10:15AM 41.4183 -82.7431 272° West 328 377 16,200 1,200 Climbing Cleveland Center
10:16AM 41.4244 -82.8650 274° West 333 383 17,300 1,140 Climbing Cleveland Center
10:17AM 41.4300 -82.9925 273° West 333 383 18,500 960 Climbing Cleveland Center
10:18AM 41.4361 -83.1064 274° West 346 398 19,300 960 Climbing Cleveland Center
10:19AM 41.4411 -83.2478 273° West 352 405 20,500 1,020 Climbing Cleveland Center
10:20AM 41.4442 -83.3811 272° West 352 405 21,400 660 Climbing Cleveland Center
10:21AM 41.4828 -83.5103 292° West 352 405 21,900 600 Climbing Cleveland Center
10:22AM 41.5314 -83.6428 296° West 372 428 22,600 600 Climbing Cleveland Center
10:23AM 41.5797 -83.7756 296° West 383 441 23,100 540 Climbing Cleveland Center
10:24AM 41.6222 -83.8944 296° West 388 447 23,700 600 Climbing Cleveland Center
10:25AM 41.6725 -84.0306 296° West 394 453 24,400 600 Climbing Cleveland Center
10:26AM 41.7206 -84.1639 296° West 394 453 24,900 480 Climbing Cleveland Center
10:27AM 41.7764 -84.3117 297° West 399 459 25,400 480 Climbing Cleveland Center
10:28AM 41.8300 -84.4486 298° West 399 459 25,900 480 Climbing Cleveland Center
10:31AM 41.9439 -84.7739 295° West 417 480 27,100 480 Climbing Chicago Center
10:32AM 41.9956 -84.9211 295° West 417 480 27,600 480 Climbing Chicago Center
10:33AM 42.0447 -85.0622 295° West 419 482 28,100 480 Climbing Chicago Center
10:34AM 42.0944 -85.2031 295° West 416 479 28,600 480 Climbing Chicago Center
10:35AM 42.1447 -85.3433 296° West 417 480 29,100 480 Climbing Chicago Center
10:36AM 42.1936 -85.4825 295° West 412 474 29,600 420 Climbing Chicago Center
10:37AM 42.2403 -85.6219 294° West 409 471 30,000 180 Climbing Chicago Center
10:38AM 42.2878 -85.7561 296° West 400 460 30,000  Level Chicago Center
10:39AM 42.3356 -85.8978 295° West 411 473 30,000  Level Chicago Center
10:40AM 42.3833 -86.0408 294° West 415 478 30,000  Level Chicago Center
10:41AM 42.4319 -86.1833 295° West 417 480 30,000  Level Chicago Center
10:42AM 42.4806 -86.3272 295° West 417 480 30,000  Level Chicago Center
10:43AM 42.5292 -86.4700 295° West 415 478 30,000  Level Chicago Center
10:44AM 42.5856 -86.6403 294° West 411 473 30,000  Level Chicago Center
10:45AM 42.6328 -86.7828 294° West 412 474 30,000  Level Chicago Center
10:46AM 42.6808 -86.9269 294° West 414 476 30,000  Level Chicago Center
10:47AM 42.7275 -87.0681 294° West 409 471 30,000  Level Chicago Center
10:48AM 42.7725 -87.2108 293° West 411 473 30,000  Level Chicago Center
10:49AM 42.8175 -87.3531 293° West 410 472 30,000  Level Chicago Center
10:50AM 42.8664 -87.5003 294° West 415 478 30,000  Level Chicago Center
10:51AM 42.9131 -87.6436 294° West 415 478 30,000  Level Chicago Center
10:52AM 42.9581 -87.7889 293° West 417 480 30,000  Level Chicago Center
10:53AM 43.0047 -87.9328 294° West 415 478 30,000  Level Chicago Center
10:54AM 43.0517 -88.0789 294° West 420 483 30,000  Level Chicago Center
10:55AM 43.1042 -88.2475 293° West 413 475 30,000  Level Chicago Center
10:56AM 43.1753 -88.3847 305° West 449 517 30,000  Level Chicago Center
10:57AM 43.2517 -88.5158 309° West 438 504 30,000  Level Chicago Center
10:58AM 43.3303 -88.6511 309° West 443 510 30,000  Level Chicago Center
10:59AM 43.4086 -88.7858 309° West 443 510 30,000  Level Chicago Center
11:00AM 43.4861 -88.9183 309° West 443 510 30,000  Level Chicago Center
11:01AM 43.5619 -89.0517 308° West 441 507 30,000  Level Chicago Center
11:02AM 43.6392 -89.1850 309° West 443 510 30,000  Level Chicago Center
11:02AM 43.6639 -89.2300 307° West 442 509 30,000  Level Minneapolis Center
11:03AM 43.7394 -89.3628 308° West 441 507 30,000  Level Minneapolis Center
11:04AM 43.8144 -89.4975 308° West 441 507 30,000  Level Minneapolis Center
11:06AM 43.9042 -89.6550 308° West 445 512 30,000  Level Minneapolis Center
11:07AM 43.9792 -89.7894 308° West 442 509 30,000  Level Minneapolis Center
11:08AM 44.0556 -89.9253 308° West 445 512 30,000  Level Minneapolis Center
11:09AM 44.1439 -90.0833 308° West 444 511 30,000  Level Minneapolis Center
11:10AM 44.2183 -90.2197 307° West 442 509 30,000  Level Minneapolis Center
11:11AM 44.2942 -90.3556 308° West 442 509 30,000  Level Minneapolis Center
11:12AM 44.3678 -90.4933 307° West 442 509 30,000  Level Minneapolis Center
11:13AM 44.4425 -90.6272 308° West 439 505 30,000  Level Minneapolis Center
11:14AM 44.5161 -90.7619 307° West 436 502 30,000  Level Minneapolis Center
11:15AM 44.5919 -90.9019 307° West 432 497 30,000  Level Minneapolis Center
11:16AM 44.6650 -91.0369 307° West 435 501 30,000 -960 Level Minneapolis Center
11:17AM 44.7156 -91.1817 296° West 421 484 28,100 -2,340 Descending Minneapolis Center
11:18AM 44.7678 -91.3483 294° West 395 455 25,200 -2,460 Descending Minneapolis Center
11:19AM 44.8072 -91.4839 292° West 382 440 23,100 -2,100 Descending Minneapolis Center
11:20AM 44.8486 -91.6181 294° West 378 435 20,900 -2,160 Descending Minneapolis Center
11:21AM 44.8872 -91.7497 293° West 370 426 18,700 -2,400 Descending Minneapolis Center
11:22AM 44.9397 -91.8978 297° West 346 398 15,900 -2,460 Descending FAA TRACON SMA TRACON (SMA)
11:23AM 44.9522 -91.9372 294° West 350 403 15,200 -1,980 Descending FAA TRACON SMA TRACON (SMA)
11:23AM 44.9642 -91.9767 293° West 353 406 14,600 -1,980 Descending FAA TRACON SMA TRACON (SMA)
11:23AM 44.9783 -92.0256 292° West 352 405 13,800 -2,100 Descending FAA TRACON SMA TRACON (SMA)
11:24AM 44.9925 -92.0747 292° West 353 406 13,100 -1,980 Descending FAA TRACON SMA TRACON (SMA)
11:24AM 45.0003 -92.1042 290° West 353 406 12,600 -1,980 Descending FAA TRACON SMA TRACON (SMA)
11:24AM 45.0156 -92.1542 293° West 357 411 11,900 -2,100 Descending FAA TRACON SMA TRACON (SMA)
11:25AM 45.0272 -92.1936 293° West 356 410 11,200 -1,560 Descending FAA TRACON SMA TRACON (SMA)
11:25AM 45.0367 -92.2325 289° West 352 405 10,900 -480 Descending FAA TRACON SMA TRACON (SMA)
11:25AM 45.0492 -92.2817 290° West 347 399 10,900  Level FAA TRACON SMA TRACON (SMA)
11:26AM 45.0489 -92.3214 269° West 339 390 10,900  Level FAA TRACON SMA TRACON (SMA)
11:26AM 45.0439 -92.3606 260° West 330 380 10,900 -480 Level FAA TRACON SMA TRACON (SMA)
11:26AM 45.0358 -92.4064 256° West 316 364 10,600 -900 Descending FAA TRACON SMA TRACON (SMA)
11:27AM 45.0272 -92.4394 250° West 297 342 10,300 -1,080 Descending FAA TRACON SMA TRACON (SMA)
11:27AM 45.0147 -92.4669 237° Southwest 278 320 9,900 -1,500 Descending FAA TRACON SMA TRACON (SMA)
11:27AM 44.9986 -92.4992 235° Southwest 263 303 9,300 -1,740 Descending FAA TRACON SMA TRACON (SMA)
11:28AM 44.9861 -92.5244 235° Southwest 258 297 8,800 -1,560 Descending FAA TRACON SMA TRACON (SMA)
11:28AM 44.9708 -92.5450 224° Southwest 252 290 8,300 -1,440 Descending FAA TRACON SMA TRACON (SMA)
11:28AM 44.9486 -92.5650 212° Southwest 246 283 7,900 -1,200 Descending FAA TRACON SMA TRACON (SMA)
11:29AM 44.9322 -92.5803 213° Southwest 238 274 7,500 -1,080 Descending FAA TRACON SMA TRACON (SMA)
11:29AM 44.9142 -92.5883 198° South 231 266 7,200 -900 Descending FAA TRACON SMA TRACON (SMA)
11:29AM 44.8925 -92.5950 192° South 214 246 6,900 -480 Descending FAA TRACON SMA TRACON (SMA)
11:30AM 44.8739 -92.6006 192° South 212 244 6,900 120 Level FAA TRACON SMA TRACON (SMA)
11:30AM 44.8561 -92.6058 192° South 213 245 7,000  Climbing FAA TRACON SMA TRACON (SMA)
11:30AM 44.8319 -92.6131 192° South 221 254 6,900 -180 Descending FAA TRACON SMA TRACON (SMA)
11:31AM 44.8142 -92.6189 193° South 221 254 6,900  Level FAA TRACON SMA TRACON (SMA)
11:31AM 44.8000 -92.6353 219° Southwest 225 259 6,900  Level FAA TRACON SMA TRACON (SMA)
11:31AM 44.7889 -92.6644 242° Southwest 222 255 6,900  Level FAA TRACON SMA TRACON (SMA)
11:32AM 44.7806 -92.6894 245° Southwest 222 255 6,900 -180 Level FAA TRACON SMA TRACON (SMA)
11:32AM 44.7781 -92.7161 262° West 227 261 6,800 -780 Descending FAA TRACON SMA TRACON (SMA)
11:32AM 44.7783 -92.7442 271° West 234 269 6,400 -1,380 Descending FAA TRACON SMA TRACON (SMA)
11:33AM 44.7814 -92.7789 277° West 232 267 5,900 -1,680 Descending FAA TRACON SMA TRACON (SMA)
11:33AM 44.7817 -92.8083 271° West 239 275 5,300 -1,560 Descending FAA TRACON SMA TRACON (SMA)
11:33AM 44.7825 -92.8375 272° West 244 281 4,900 -1,080 Descending FAA TRACON SMA TRACON (SMA)
11:34AM 44.7819 -92.8739 269° West 244 281 4,600 -900 Descending FAA TRACON SMA TRACON (SMA)
11:34AM 44.7831 -92.9017 273° West 235 270 4,300 -900 Descending FAA TRACON SMA TRACON (SMA)
11:34AM 44.7836 -92.9300 272° West 233 268 4,000 -480 Descending FAA TRACON SMA TRACON (SMA)
11:35AM 44.7844 -92.9653 272° West 233 268 4,000 -180 Level FAA TRACON SMA TRACON (SMA)
11:35AM 44.7858 -92.9942 274° West 238 274 3,900 -180 Descending FAA TRACON SMA TRACON (SMA)
11:35AM 44.7928 -93.0203 291° West 237 273 3,900 -480 Level FAA TRACON SMA TRACON (SMA)
11:36AM 44.8050 -93.0478 302° West 220 253 3,600 -1,200 Descending FAA TRACON SMA TRACON (SMA)
11:36AM 44.8150 -93.0681 305° West 206 237 3,100 -1,200 Descending FAA TRACON SMA TRACON (SMA)
11:36AM 44.8242 -93.0872 304° West 194 223 2,800 -1,080 Descending FAA TRACON SMA TRACON (SMA)
11:37AM 44.8333 -93.1081 302° West 167 192 2,400 -900 Descending FAA TRACON SMA TRACON (SMA)
11:37AM 44.8397 -93.1233 301° West 150 173 2,200 -780 Descending FAA TRACON SMA TRACON (SMA)
11:37AM 44.8461 -93.1378 302° West 143 165 1,900 -900 Descending FAA TRACON SMA TRACON (SMA)